Home > Time Zones > World Clock > Weather > Egypt > Cairo > Past weeks

Flag for Egypt Weather past 2 weeks in Cairo, Egypt

Now
63 °F

Haze.


Feels Like: 63 °F
Forecast: 56 / 74 °F
Wind: 3 mph from North

Location: Cairo Airport

Current Time: Apr 22, 2015 at 4:08:10 AM

Latest Report: Apr 22, 2015 at 3:30 AM


Visibility: 2 mi

Pressure: 29.95 "Hg

Humidity: 83%

Dew point: 57 °F

Location of CairoLocation

Historic Weather in Cairo — Graph

°F

Cairo temperature yesterday

Maximum temperature yesterday: 82 °F (at 2:00 PM)
Minimum temperature yesterday: 61 °F (at 6:00 AM)
Average temperature yesterday: 74 °F

Past Weeks' High & Low Weather Summary

 TemperatureHumidityPressure
High100 °F (Apr 8, 1:30 PM)94% (Apr 14, 4:30 AM)30.33 "Hg (Apr 14, 4:30 AM)
Low52 °F (Apr 11, 6:00 AM)5% (Apr 8, 3:00 PM)29.62 "Hg (Apr 8, 5:00 PM)
Average68 °F45%30.04 "Hg
* Reported Apr 7 2:00 AM — Apr 22 2:30 AM, Cairo, Weather by CustomWeather, © 2015

Note: Actual official high and low records may vary slightly from our data, if they occured in-between our weather recording intervals... More about our weather records

Advertising

Cairo weather history for previous 24 hours

 ConditionsComfort  
Time TempWeatherWind HumidityBarometerVisibility
2:30 AM
Wed, Apr 22
64 °FHaze.6 mph73%29.98 "Hg2 mi
2:00 AM64 °FClear.3 mph73%29.98 "Hg4 mi
1:30 AM64 °FClear.6 mph73%29.98 "Hg4 mi
1:00 AM66 °FClear.5 mph68%29.98 "Hg4 mi
12:30 AM66 °FClear.3 mph68%29.98 "Hg4 mi
12:00 AM68 °FClear.5 mph64%29.98 "Hg10 mi
11:30 PM
Tue, Apr 21
68 °FClear.5 mph64%29.98 "Hg10 mi
11:00 PM70 °FClear.3 mph60%29.98 "Hg10 mi
10:30 PM70 °FClear.5 mph57%29.98 "Hg10 mi
10:00 PM70 °FClear.5 mph57%29.98 "Hg10 mi
9:30 PM72 °FClear.7 mph50%29.98 "Hg10 mi
9:00 PM72 °FClear.7 mph50%29.98 "Hg10 mi
8:30 PM73 °FClear.7 mph44%29.98 "Hg10 mi
8:00 PM75 °FClear.7 mph47%29.95 "Hg10 mi
7:00 PM77 °FClear.6 mph42%29.92 "Hg10 mi
6:30 PM79 °FClear.7 mph37%29.92 "Hg10 mi
6:00 PM79 °FSunny.6 mph37%29.92 "Hg10 mi
5:30 PM81 °FSunny.7 mph32%29.92 "Hg10 mi
5:00 PM81 °FSunny.7 mph32%29.92 "Hg10 mi
4:30 PM82 °FSunny.9 mph26%29.92 "Hg10 mi
4:00 PM82 °FSunny.9 mph26%29.92 "Hg10 mi
3:30 PM82 °FSunny.9 mph26%29.92 "Hg10 mi
3:00 PM82 °FSunny.7 mph26%29.92 "Hg10 mi
2:30 PM82 °FSunny.7 mph26%29.92 "Hg10 mi
2:00 PM82 °FSunny.7 mph26%29.92 "Hg10 mi
1:30 PM81 °FSunny.6 mph34%29.92 "Hg10 mi
1:00 PM81 °FSunny.No wind34%29.92 "Hg10 mi
12:30 PM81 °FSunny.2 mph34%29.95 "Hg10 mi
12:00 PM77 °FClear.2 mph39%29.95 "Hg4 mi
11:30 AM77 °FHaze.No wind39%29.95 "Hg2 mi
11:00 AM75 °FHaze.No wind44%29.95 "Hg2 mi
10:30 AM73 °FHaze.No wind53%29.95 "Hg2 mi
10:00 AM73 °FHaze.No wind53%29.95 "Hg2 mi
9:30 AM70 °FHaze.No wind60%29.98 "Hg2 mi
9:00 AM66 °FHaze.No wind73%29.98 "Hg2 mi
8:30 AM66 °FFog.No wind73%29.95 "Hg2 mi
8:00 AM63 °FFog.No wind83%29.95 "Hg2 mi
7:30 AM63 °FFog.3 mph83%29.95 "Hg1 mi
7:00 AM61 °FFog.5 mph88%29.95 "Hg1 mi
6:00 AM61 °FFog.5 mph88%29.95 "Hg2 mi
5:00 AM64 °FClear.5 mph68%29.92 "Hg10 mi
4:00 AM66 °FClear.6 mph60%29.89 "Hg10 mi
Weather by CustomWeather, © 2015

See weather overviewHow to use our weather pages